Warning: Javascript must be enabled to use all the features on this page!


Page Loading - Please Wait...

Click to hideNews Bulletins

Streamflow Measurements for the Nation


USGS 03189000 CHERRY RIVER AT FENWICK, WV


Nicholas County, West Virginia
Hydrologic Unit Code 05050005
Latitude  38°13'45", Longitude  80°35'00" NAD27
Drainage area 150.00  square miles
Gage datum 2,088.94 feet above COE1912
Output formats
HTML table with channel data
HTML table without channel data
Tab-separated data with channel data
Tab-separated data without channel data
Graph of data
Reselect output format
Meas.
Number
  Date       Time Time
Datum
Measurement
Used?
  Who Measuring
Agency
Stream
flow
(ft3/s)
Gage
Height
(ft)
GH
Change
(ft)
Meas.
Duration
(hr)
Meas.
Rated
  Control Flow
Adjust.
Code
 
3861982-04-15 12:02:30ESTYesGRCUSGS4252.85 Good MEAS
3851982-02-26 12:02:30ESTYesGRCUSGS6793.40 Good MEAS
3781981-06-04 13:02:30EDTYesGRCUSGS14104.58 Good MEAS
3771981-04-24 12:02:30ESTYesGRCUSGS7643.56 Good MEAS
3761981-02-18 12:02:30ESTYesGRCUSGS14104.52 Good MEAS
3711980-08-26 13:02:30EDTYesGRCUSGS2752.27 Good MEAS
3701980-07-14 13:02:30EDTYesGRCUSGS4342.79 Good MEAS
3691980-04-09 12:02:30ESTYesAKTUSGS16204.77 Good MEAS
3671980-01-16 12:02:30ESTYesAKTUSGS7323.37 Good MEAS
3651979-10-17 13:02:30EDTYesJTAUSGS4552.87 Fair MEAS
3571969-04-09 12:02:30ESTYesAKTUSGS6103.14 Good MEAS
3501968-03-11 12:02:30ESTYesAKTUSGS17704.87 Good MEAS
3491967-12-05 12:02:30ESTYesOBRUSGS9423.95 Good MEAS
3481967-10-27 13:02:30EDTYesOBRUSGS6163.31 Good MEAS
3441967-05-02 13:02:30EDTYesAKTUSGS6433.25 Good MEAS
3431967-03-14 12:02:30ESTYesAKTUSGS35206.42 Good MEAS
3421967-02-01 12:02:30ESTYesAKTUSGS5793.14 Good MEAS
3411966-12-13 12:02:30ESTYesRLBUSGS7883.66 Good MEAS
3401966-11-09 12:02:30ESTYesRLBUSGS2982.46 Good MEAS
3391966-09-22 13:02:30EDTYesRLBUSGS3222.54 Fair MEAS
3351966-03-08 12:02:30ESTYesAKTUSGS5843.14 Good MEAS
3261965-02-08 12:02:30ESTYesOBRUSGS21105.30 Good MEAS
3251965-01-06 12:02:30ESTYesGSRUSGS6283.18 Good MEAS
3171964-03-03 12:02:30ESTYesGSRUSGS15404.38 Fair MEAS
3111963-07-27 13:02:30EDTYesOBRUSGS3372.64 Good MEAS
3091963-05-22 13:02:30EDTYesOBRUSGS3172.58 Good MEAS
3071963-01-15 12:02:30ESTYesEAFUSGS7783.51 Good MEAS
3061962-11-14 12:02:30ESTYesEAFUSGS5243.09 Good MEAS
3011962-04-19 12:02:30ESTYesRBSUSGS6123.24 Good MEAS
3001962-03-14 12:02:30ESTYesFRGUSGS7403.43 Fair MEAS
2991962-01-23 12:02:30ESTYesCJCUSGS19605.12 Good MEAS
2981961-12-11 12:02:30ESTYesRBSUSGS9263.68 Good MEAS
2971961-10-26 13:02:30EDTYesRBSUSGS14604.48 Fair MEAS
2921961-05-09 13:02:30EDTYesEAFUSGS10604.06 Good MEAS
2911961-04-10 12:02:30ESTYesEAFUSGS13404.36 Good MEAS
2901961-03-08 12:02:30ESTYesCEPUSGS10303.84 Good MEAS
2781959-10-29 12:02:30ESTYesRBSUSGS4492.82 Fair MEAS
2721959-03-25 12:02:30ESTYesSBUSGS4112.82 Fair MEAS
2711958-12-04 12:02:30ESTYesRBSUSGS4512.87 Unspecified MEAS
2681958-07-09 13:02:30EDTYesCEPUSGS4242.86 Good MEAS
2661958-05-13 13:02:30EDTYesRBSUSGS5102.92 Fair MEAS
2651958-04-16 12:02:30ESTYesCEPUSGS14004.32 Good MEAS
2641958-03-11 12:02:30ESTYesSBUSGS5483.06 Fair MEAS
2631958-01-14 12:02:30ESTYesRBSUSGS14504.72 Fair MEAS
2551956-12-12 12:02:30ESTYesSBUSGS14504.55 Good MEAS
2501956-03-14 12:02:30ESTYesCJSUSGS23705.71 Good MEAS
2491956-02-15 12:02:30ESTYesCJSUSGS13904.45 Good MEAS
2481956-02-14 12:02:30ESTYesCJSUSGS5233.07 Good MEAS
2461955-12-07 12:02:30ESTYesCJSUSGS2442.46 Fair MEAS
2371955-03-09 12:02:30ESTYesFRGUSGS8713.74 Good MEAS
2361955-02-15 12:02:30ESTYesFRGUSGS4663.13 Good MEAS
2351955-01-11 12:02:30ESTYesFRGUSGS4462.94 Good MEAS
2341954-12-29 12:02:30ESTYesFRGUSGS60208.20 Fair MEAS
2331954-12-15 12:02:30ESTYesFRGUSGS5753.15 Poor MEAS
2281954-05-05 13:02:30EDTYesBreseeUSGS2153.64 Good MEAS
2271954-03-10 12:02:30ESTYesBreseeUSGS6504.45 Good MEAS
2211953-06-24 13:02:30EDTYesSBUSGS3153.92 Fair MEAS
2201953-05-20 13:02:30EDTYesSBUSGS9404.87 Good MEAS
2191953-04-08 12:02:30ESTYesSBUSGS8544.81 Good MEAS
2181953-02-25 12:02:30ESTYesSBUSGS5634.37 Unspecified MEAS
2171953-01-21 12:02:30ESTYesSBUSGS5524.35 Good MEAS
2161952-12-10 12:02:30ESTYesSBUSGS3183.89 Fair MEAS
2111952-05-21 13:02:30EDTYesAFCUSGS12505.40 Good MEAS
2101952-04-01 12:02:30ESTYesAFCUSGS2543.75 Good MEAS
2091952-02-12 12:02:30ESTYesAFCUSGS3043.82 Good MEAS
2081952-01-03 12:02:30ESTYesAFCUSGS21106.28 Fair MEAS
2071951-11-27 12:02:30ESTYesAFCUSGS9934.96 Unspecified MEAS
2021951-06-06 13:02:30EDTYesAAVUSGS2853.82 Fair MEAS
2001951-03-27 12:02:30ESTYesAFCUSGS6444.47 Good MEAS
1991951-02-19 12:02:30ESTYesAFCUSGS10504.94 Good MEAS
1981951-01-17 12:02:30ESTYesAFCUSGS8244.75 Good MEAS
1971950-12-13 12:02:30ESTYesAFCUSGS3684.01 Good MEAS
1961950-11-08 12:02:30ESTYesAFCUSGS5584.23 Good MEAS
1931950-07-25 13:02:30EDTYesAFCUSGS3283.84 Good MEAS
1921950-06-21 13:02:30EDTYesAFCUSGS8414.72 Good MEAS
1891950-03-17 12:02:30ESTYesAAVUSGS6024.48 Fair MEAS
1881950-02-09 12:02:30ESTYesAAVUSGS11705.22 Fair MEAS
1871950-01-12 12:02:30ESTYesRFRUSGS8244.67 Unspecified MEAS
1861949-12-01 12:02:30ESTYesMooreUSGS9074.95 Good MEAS
1851949-11-08 12:02:30ESTYesMooreUSGS3954.02 Fair MEAS
1791949-05-05 13:02:30EDTYesSloterUSGS4033.95 Good MEAS
1781949-04-11 12:02:30ESTYesSloterUSGS10505.12 Good MEAS
1771949-03-09 12:02:30ESTYesFRGUSGS6654.46 Good MEAS
1761949-02-16 12:02:30ESTYesLBHUSGS22106.33 Fair MEAS
1751949-01-19 12:02:30ESTYesLBHUSGS3133.87 Fair MEAS
1741948-12-16 12:02:30ESTYesWKUSGS26706.86 Excellent MEAS
1731948-11-18 12:02:30ESTYesWKUSGS2303.66 Good MEAS
1701948-08-11 13:02:30EDTYesWKUSGS2043.54 Good MEAS
1691948-07-22 13:02:30EDTYesHinsonUSGS15505.73 Good MEAS
1661948-04-14 12:02:30ESTYesHinsonUSGS21806.40 Good MEAS
1651948-03-11 12:02:30ESTYesHinsonUSGS6324.53 Good MEAS
1631948-01-17 12:02:30ESTYesWMUSGS4064.16 Good MEAS
1621947-12-17 12:02:30ESTYesWMUSGS3884.10 Good MEAS
1561947-06-10 13:02:30EDTYesHinsonUSGS3524.07 Good MEAS
1541947-04-16 12:02:30ESTYesHinsonUSGS3924.08 Good MEAS
1531947-03-14 12:02:30ESTYesHinsonUSGS29606.91 Good MEAS
1511947-01-22 12:02:30ESTYesHinsonUSGS8584.86 Good MEAS
1431946-05-23 13:02:30EDTYesHinsonUSGS3984.05 Good MEAS
1421946-04-18 12:02:30ESTYesHinsonUSGS2033.66 Good MEAS
1411946-03-20 12:02:30ESTYesHinsonUSGS7284.66 Good MEAS
1401946-02-14 12:02:30ESTYesLillyUSGS8024.73 Unspecified MEAS
1391946-01-09 12:02:30ESTYesHensonUSGS27206.83 Good MEAS
1381945-11-20 12:02:30ESTYesLillyUSGS14505.64 Good MEAS
1361945-09-18 13:02:30EDTYesTruslowUSGS14205.63 Good MEAS
1321945-05-10 13:02:30EDTYesWasylkinUSGS9054.95 Good MEAS
1311945-04-11 13:02:30EDTYesWMUSGS2223.76 Good MEAS
1291945-02-16 13:02:30EDTYesWKUSGS29406.97 Excellent MEAS
1281945-01-17 13:02:30EDTYesWasylkinUSGS3243.96 Fair MEAS
1211944-05-03 13:02:30EDTYesWKUSGS1893.63 Good MEAS
1201944-04-12 13:02:30EDTYesKollarUSGS44007.94 Good MEAS
1191944-04-12 13:02:30EDTYesKollarUSGS48308.11 Good MEAS
1181944-03-09 13:02:30EDTYesKollarUSGS5804.44 Good MEAS
1171944-02-17 13:02:30EDTYesKollarUSGS2973.91 Good MEAS
1151943-12-09 13:02:30EDTYesKollarUSGS13005.51 Good MEAS
1091943-06-11 13:02:30EDTYesWMUSGS2853.87 Fair MEAS
1081943-05-12 13:02:30EDTYesKollarUSGS23606.57 Good MEAS
1071943-04-20 13:02:30EDTYesWasylkinUSGS24006.50 Good MEAS
1051943-03-20 13:02:30EDTYesKollarUSGS21606.51 Good MEAS
1041943-03-20 13:02:30EDTYesKollarUSGS23406.60 Good MEAS
1031943-03-16 13:02:30EDTYesKollarUSGS8924.97 Good MEAS
1021943-01-22 13:02:30EDTYesKollarUSGS5424.29 Good MEAS
1011942-12-12 13:02:30EDTYesKollarUSGS2943.88 Good MEAS
991942-10-31 13:02:30EDTYesKollarUSGS3544.00 Good MEAS
971942-08-15 13:02:30EDTYesKollarUSGS5404.28 Good MEAS
941942-05-23 13:02:30EDTYesWMUSGS13805.61 Fair MEAS
931942-05-23 13:02:30EDTYesWMUSGS13505.68 Fair MEAS
911942-04-14 13:02:30EDTYesKollarUSGS3614.10 Good MEAS
901942-03-11 13:02:30EDTYesKollarUSGS8554.80 Good MEAS
871942-02-04 12:02:30ESTYesKollarUSGS3153.96 Good MEAS
841941-12-06 12:02:30ESTYesKollarUSGS7364.79 Good MEAS
831941-12-06 12:02:30ESTYesKollarUSGS7734.85 Good MEAS
791941-09-10 13:02:30EDTYesCragwallUSGS2003.66 Poor MEAS
781941-07-24 13:02:30EDTYesMorrisonUSGS89.83.11 Poor MEAS
771941-07-05 13:02:30EDTYesTaylorUSGS10005.12 Unspecified MEAS
761941-07-05 13:02:30EDTYesTaylorUSGS7344.74 Good MEAS
721941-04-15 12:02:30ESTYesWasylkinUSGS2873.79 Unspecified MEAS
711941-03-15 12:02:30ESTYesWasylkinUSGS3864.02 Unspecified MEAS
631940-07-17 13:02:30EDTYesTerryUSGS4734.24 Fair MEAS
621940-06-27 13:02:30EDTYesWeggelUSGS1890013.42 Fair MEAS
601940-04-16 12:02:30ESTYesLBHUSGS5864.68 Good MEAS
591940-03-12 12:02:30ESTYesWeggelUSGS2203.94 Good MEAS
581940-02-13 12:02:30ESTYesLBHUSGS12405.57 Unspecified MEAS
501939-08-02 13:02:30EDTYesLBHUSGS2693.94 Fair MEAS
461939-04-26 12:02:30ESTYesLBHUSGS2533.93 Unspecified MEAS
451939-02-11 12:02:30ESTYesWKUSGS26707.30 Unspecified MEAS
441939-02-04 12:02:30ESTYesWKUSGS28007.34 Unspecified MEAS
431939-01-31 12:02:30ESTYesTaylorUSGS26107.11 Unspecified MEAS
421939-01-30 12:02:30ESTYesTaylorUSGS57609.15 Unspecified MEAS
411939-01-05 12:02:30ESTYesTaylorUSGS8895.40 Unspecified MEAS
381938-04-26 13:02:30EDTYesWeggelUSGS3184.37 Unspecified MEAS
371938-03-08 12:02:30ESTYesTaylorUSGS9475.53 Unspecified MEAS
361938-02-02 12:02:30ESTYesTaylorUSGS4364.61 Unspecified MEAS
351938-01-07 12:02:30ESTYesWeggelUSGS2434.14 Unspecified MEAS
341937-04-22 12:02:30ESTYesWKUSGS3414.56 Unspecified MEAS
331936-12-02 12:02:30ESTYesWKUSGS96.23.83 Unspecified MEAS
311936-05-19 13:02:30EDTYesTrippUSGS12205.95 Unspecified MEAS
301936-03-10 12:02:30ESTYesWKUSGS4544.78 Unspecified MEAS
291935-12-12 12:02:30ESTYesTrippUSGS5865.03 Unspecified MEAS
281935-10-29 12:02:30ESTYesWKUSGS10005.67 Unspecified MEAS
251935-03-12 12:02:30ESTYesAOPUSGS43008.85 Unspecified MEAS
231934-05-11 13:02:30EDTYesAOPUSGS6545.20 Unspecified MEAS
221934-04-04 12:02:30ESTYesAOPUSGS2814.55 Unspecified MEAS
211933-08-10 13:02:30EDTYesWKUSGS2014.22 Unspecified MEAS
201932-05-20 13:02:30EDTYesWKUSGS2134.29 Unspecified MEAS
191932-04-02 12:02:30ESTYesWKUSGS10905.97 Unspecified MEAS
181932-01-24 12:02:30ESTYesWKUSGS3464.72 Unspecified MEAS
171931-04-14 12:02:30ESTYesThomsonUSGS8865.69 Unspecified MEAS
161931-03-05 12:02:30ESTYesMTTUSGS3104.61 Unspecified MEAS
151931-01-07 12:02:30ESTYesThomsonUSGS6915.37 Unspecified MEAS
111930-05-27 13:02:30EDTYesThomsonUSGS87.03.88 Unspecified MEAS
101930-05-07 13:02:30EDTYesWKUSGS1143.98 Unspecified MEAS
91930-03-27 12:02:30ESTYesThomsonUSGS2294.42 Unspecified MEAS
81930-03-09 12:02:30ESTYesWKUSGS12206.12 Unspecified MEAS
71930-01-09 12:02:30ESTYesThomsonUSGS4404.96 Unspecified MEAS
61929-11-20 12:02:30ESTYesThomsonUSGS10105.76 Unspecified MEAS
51929-11-19 12:02:30ESTYesThomsonUSGS19606.87 Unspecified MEAS
41929-11-16 12:02:30ESTYesWKUSGS4915.02 Unspecified MEAS
31929-11-11 12:02:30ESTYesWKUSGS2554.52 Unspecified MEAS